Location: Austin
(30.3000°N, 97.7500°W)
Time: 00:09:27
(UTC-06:00)

Centaur D-1AR AC-36 - Pass Details

Date: 04 November 2025
Orbit: 480 x 36371 km, 21.7° (Epoch: 15 November)

Event Time Altitude Azimuth Distance (km) Brightness Sun altitude
Rises 18:45:19 0° 245° (WSW) 3,323 6.9 -14.3°
Reaches altitude 10° 18:46:49 10° 239° (WSW) 2,771 6.0 -14.7°
Maximum altitude 18:52:55 55° 161° (SSE) 2,431 4.4 -16.0°
Enters shadow 19:16:32 21° 95° (E) 10,663 7.2 -21.0°
Exits shadow 20:22:59 - 96° (E) 25,666 9.2 -35.3°
Drops below altitude 10° 04:22:10 10° 141° (SE) 18,598 9.4 -31.9°
Sets 04:39:58 0° 134° (SE) 15,584 9.3 -28.1°
